Mount Pleasant, IA

4:19 AM CST on December 16, 2017 (GMT -0600)
Mount Pleasant Municipal

Weather History for KMPZ - January, 2013

Change the Weather History Date:

Friday, January 18, 2013

  Actual Average Record
Temperature  
Mean Temperature 36 °F -  
Max Temperature 51 °F 28 °F 59 °F (1951)
Min Temperature 22 °F 13 °F -11 °F (1967)
Degree Days  
Heating Degree Days 28    
Moisture  
Dew Point 27 °F    
Average Humidity 68    
Maximum Humidity 83    
Minimum Humidity 48    
Precipitation  
Precipitation 0.00 in - - ()
Sea Level Pressure  
Sea Level Pressure 30.14 in    
Wind  
Wind Speed 14 mph (SSW)    
Max Wind Speed 28 mph    
Max Gust Speed 38 mph    
Visibility 10 miles    
Events      
Averages and records for this station are not official NWS values.
T = Trace of Precipitation, MM = Missing Value Source: NWS Daily Summary

Daily Weather History Graph

Daily Weather History Graph

Search for Another Location

Airport or City:

Trip Planner

Search our weather history database for the weather conditions in past years. The results will help you decide how hot, cold, wet, or windy it might be!

Date:

Astronomy

Jan. 18, 2013 Rise Set
Actual Time 7:27 AM CST 5:06 PM CST
Civil Twilight 6:57 AM CST 5:36 PM CST
Nautical Twilight 6:23 AM CST 6:10 PM CST
Astronomical Twilight 5:50 AM CST 6:43 PM CST
Moon 11:01 AM CST (1/18) 12:00 AM CST (1/18)
Length of Visible Light 10h 39m
Length of Day
9h 39m
Waxing Crescent, 47% of the Moon is Illuminated
Jan 18
Waxing Crescent
Jan 18
First Quarter
Jan 26
Full
Feb 3
Last Quarter
Feb 10
New

Hourly Weather History & Observations

Time (CST) Temp. Windchill Dew Point Humidity Pressure Visibility Wind Dir Wind Speed Gust Speed Precip Events Conditions
12:15 AM 22.8 °F 14.5 °F 18.0 °F 82% 30.42 in 10.0 mi South 6.9 mph - N/A   Clear
12:35 AM 22.6 °F 15.3 °F 17.2 °F 80% 30.41 in 10.0 mi SSE 5.8 mph - N/A   Clear
12:55 AM 22.6 °F 14.3 °F 17.2 °F 80% 30.41 in 10.0 mi SSE 6.9 mph - N/A   Clear
1:15 AM 22.1 °F 12.8 °F 17.6 °F 83% 30.40 in 10.0 mi SSE 8.1 mph - N/A   Clear
1:35 AM 23.0 °F 13.9 °F 17.6 °F 80% 30.40 in 10.0 mi SSE 8.1 mph - N/A   Clear
1:55 AM 23.4 °F 14.3 °F 18.1 °F 80% 30.39 in 10.0 mi South 8.1 mph - N/A   Clear
2:15 AM 25.2 °F 15.7 °F 19.2 °F 78% 30.38 in 10.0 mi South 9.2 mph - N/A   Clear
2:35 AM 25.5 °F 15.5 °F 19.6 °F 78% 30.39 in 10.0 mi South 10.4 mph - N/A   Clear
2:55 AM 25.7 °F 15.1 °F 19.9 °F 79% 30.38 in 10.0 mi South 11.5 mph - N/A   Clear
3:15 AM 26.6 °F 16.8 °F 20.7 °F 78% 30.37 in 10.0 mi South 10.4 mph - N/A   Clear
3:35 AM 26.4 °F 16.6 °F 20.8 °F 79% 30.36 in 10.0 mi South 10.4 mph - N/A   Clear
3:55 AM 26.4 °F 17.3 °F 21.0 °F 80% 30.35 in 10.0 mi South 9.2 mph - N/A   Clear
4:15 AM 26.2 °F 17.8 °F 21.2 °F 81% 30.34 in 10.0 mi South 8.1 mph - N/A   Clear
4:35 AM 26.1 °F 17.6 °F 21.2 °F 82% 30.34 in 10.0 mi South 8.1 mph - N/A   Clear
4:55 AM 26.2 °F 17.1 °F 21.2 °F 81% 30.34 in 10.0 mi South 9.2 mph - N/A   Clear
5:15 AM 26.2 °F 16.4 °F 21.4 °F 82% 30.32 in 10.0 mi South 10.4 mph - N/A   Clear
5:35 AM 26.4 °F 16.0 °F 21.7 °F 82% 30.31 in 10.0 mi South 11.5 mph - N/A   Clear
5:55 AM 26.8 °F 15.4 °F 22.1 °F 83% 30.30 in 10.0 mi South 13.8 mph - N/A   Clear
6:15 AM 27.1 °F 15.9 °F 22.1 °F 81% 30.30 in 10.0 mi South 13.8 mph - N/A   Clear
6:35 AM 27.5 °F 16.8 °F 22.6 °F 82% 30.29 in 10.0 mi South 12.7 mph - N/A   Clear
6:55 AM 28.0 °F 16.5 °F 22.8 °F 81% 30.28 in 10.0 mi South 15.0 mph - N/A   Clear
7:15 AM 28.4 °F 16.6 °F 23.0 °F 80% 30.28 in 10.0 mi South 16.1 mph - N/A   Clear
7:35 AM 28.2 °F 17.2 °F 23.0 °F 81% 30.27 in 10.0 mi South 13.8 mph - N/A   Clear
7:55 AM 28.4 °F 16.6 °F 23.2 °F 81% 30.26 in 10.0 mi South 16.1 mph - N/A   Clear
8:15 AM 29.3 °F 17.7 °F 23.7 °F 80% 30.25 in 10.0 mi South 16.1 mph - N/A   Clear
8:35 AM 30.9 °F 18.7 °F 24.3 °F 76% 30.25 in 10.0 mi South 19.6 mph 24.2 mph N/A   Clear
8:55 AM 32.0 °F 19.8 °F 24.8 °F 75% 30.24 in 10.0 mi South 20.7 mph 28.8 mph N/A   Clear
9:15 AM 33.6 °F 22.6 °F 25.5 °F 72% 30.23 in 10.0 mi South 18.4 mph 25.3 mph N/A   Clear
9:35 AM 35.4 °F 24.0 °F 26.4 °F 70% 30.23 in 10.0 mi South 21.9 mph 26.5 mph N/A   Clear
9:55 AM 36.9 °F 25.6 °F 27.1 °F 68% 30.23 in 10.0 mi SSW 23.0 mph 26.5 mph N/A   Clear
10:15 AM 38.5 °F 28.1 °F 28.2 °F 67% 30.21 in 10.0 mi SSW 21.9 mph 29.9 mph N/A   Clear
10:35 AM 38.8 °F 28.0 °F 28.2 °F 66% 30.20 in 10.0 mi SSW 24.2 mph 32.2 mph N/A   Clear
10:55 AM 41.0 °F 30.7 °F 29.1 °F 63% 30.18 in 10.0 mi SSW 25.3 mph 34.5 mph N/A   Clear
11:15 AM 42.3 °F 33.1 °F 29.5 °F 61% 30.16 in 10.0 mi SSW 21.9 mph 34.5 mph N/A   Clear
11:35 AM 43.3 °F 34.2 °F 30.0 °F 59% 30.14 in 10.0 mi SSW 23.0 mph 38.0 mph N/A   Clear
11:55 AM 42.8 °F 34.0 °F 30.2 °F 61% 30.12 in 10.0 mi SSW 20.7 mph 31.1 mph N/A   Clear
12:15 PM 43.3 °F 33.8 °F 30.4 °F 60% 30.10 in 10.0 mi SSW 25.3 mph 35.7 mph N/A   Clear
12:35 PM 45.3 °F 36.5 °F 31.1 °F 58% 30.07 in 10.0 mi SSW 25.3 mph 31.1 mph N/A   Clear
12:55 PM 46.8 °F - 31.6 °F 56% 30.04 in 10.0 mi SSW 27.6 mph 33.4 mph N/A   Clear
1:15 PM 48.2 °F - 31.5 °F 52% 30.02 in 10.0 mi SSW 26.5 mph 34.5 mph N/A   Clear
1:35 PM 49.3 °F - 32.2 °F 52% 30.01 in 10.0 mi SSW 19.6 mph 33.4 mph N/A   Clear
1:55 PM 50.0 °F - 32.0 °F 50% 30.00 in 10.0 mi SSW 24.2 mph 29.9 mph N/A   Clear
2:15 PM 50.4 °F - 32.0 °F 49% 29.98 in 10.0 mi SSW 25.3 mph 38.0 mph N/A   Clear
2:35 PM 50.9 °F - 31.8 °F 48% 29.98 in 10.0 mi SSW 25.3 mph 36.8 mph N/A   Clear
2:55 PM 51.1 °F - 32.0 °F 48% 29.98 in 10.0 mi SSW 21.9 mph 32.2 mph N/A   Clear
3:15 PM 51.1 °F - 32.0 °F 48% 29.97 in 10.0 mi SSW 21.9 mph 33.4 mph N/A   Clear
3:35 PM 51.1 °F - 32.2 °F 48% 29.96 in 10.0 mi SSW 20.7 mph 32.2 mph N/A   Clear
3:55 PM 50.4 °F - 32.0 °F 49% 29.95 in 10.0 mi SSW 23.0 mph 29.9 mph N/A   Clear
4:15 PM 50.0 °F - 32.0 °F 50% 29.95 in 10.0 mi SSW 18.4 mph 28.8 mph N/A   Clear
4:35 PM 49.1 °F - 32.0 °F 52% 29.95 in 10.0 mi SSW 19.6 mph 28.8 mph N/A   Clear
4:55 PM 48.0 °F - 32.0 °F 54% 29.96 in 10.0 mi SSW 17.3 mph 27.6 mph N/A   Clear
5:15 PM 46.9 °F - 31.8 °F 56% 29.97 in 10.0 mi SSW 17.3 mph 23.0 mph N/A   Clear
5:35 PM 45.5 °F 38.6 °F 32.0 °F 59% 29.97 in 10.0 mi SSW 16.1 mph - N/A   Clear
5:55 PM 44.8 °F 37.4 °F 32.0 °F 61% 29.98 in 10.0 mi SSW 17.3 mph - N/A   Clear
6:15 PM 44.8 °F 37.4 °F 32.0 °F 61% 29.97 in 10.0 mi SSW 17.3 mph - N/A   Clear
6:35 PM 44.2 °F 37.3 °F 32.0 °F 62% 29.98 in 10.0 mi SSW 15.0 mph - N/A   Clear
6:55 PM 43.5 °F 36.1 °F 32.0 °F 64% 29.98 in 10.0 mi SSW 16.1 mph - N/A   Clear
7:15 PM 43.2 °F 35.3 °F 31.8 °F 64% 29.97 in 10.0 mi SSW 17.3 mph - N/A   Clear
7:35 PM 43.7 °F 36.3 °F 31.8 °F 63% 29.98 in 10.0 mi SSW 16.1 mph - N/A   Clear
7:55 PM 43.5 °F 36.1 °F 31.8 °F 63% 29.97 in 10.0 mi SSW 16.1 mph - N/A   Clear
8:15 PM 43.7 °F 36.0 °F 31.8 °F 63% 29.96 in 10.0 mi SSW 17.3 mph - N/A   Clear
8:35 PM 43.2 °F 35.3 °F 31.8 °F 64% 29.96 in 10.0 mi SSW 17.3 mph - N/A   Clear
8:55 PM 42.8 °F 35.4 °F 31.8 °F 65% 29.96 in 10.0 mi SSW 15.0 mph - N/A   Clear
9:35 PM 42.6 °F 35.6 °F 31.8 °F 66% 29.96 in 10.0 mi SSW 13.8 mph - N/A   Clear
9:55 PM 41.5 °F 34.2 °F 31.6 °F 68% 29.96 in 10.0 mi SSW 13.8 mph - N/A   Clear
10:15 PM 41.2 °F 33.4 °F 31.6 °F 69% 29.95 in 10.0 mi SSW 15.0 mph - N/A   Clear
10:35 PM 40.6 °F 33.0 °F 31.6 °F 70% 29.95 in 10.0 mi SSW 13.8 mph - N/A   Clear
10:55 PM 40.3 °F 32.6 °F 31.5 °F 71% 29.95 in 10.0 mi SSW 13.8 mph - N/A   Clear
11:15 PM 40.1 °F 32.7 °F 31.5 °F 71% 29.95 in 10.0 mi SSW 12.7 mph - N/A   Clear
11:35 PM 39.6 °F 32.5 °F 31.3 °F 72% 29.95 in 10.0 mi SSW 11.5 mph - N/A   Clear
11:55 PM 39.9 °F 32.9 °F 31.1 °F 71% 29.95 in 10.0 mi SSW 11.5 mph 19.6 mph N/A   Clear